Regional Weather Roundup
Issued by NWS

Home | Current Version | Previous Version | Text Only | Print | Product List | Glossary Off
Versions: 1 2 3 4 5 6 7 8 9 10 11 12 13 14 15 16 17 18 19 20 21 22 23 24 25 26 27 28 29 30 31 32 33 34 35 36 37 38 39 40 41 42 43 44 45 46 47 48 49 50

000
ASUS43 KLMK 242202
RWRKY
KENTUCKY REGIONAL WEATHER ROUNDUP
NATIONAL WEATHER SERVICE LOUISVILLE KY
600 PM EDT TUE MAY 24 2016

NOTE "FAIR" INDICATES FEW OR NO CLOUDS BELOW 12,000 FEET
WITH NO SIGNIFICANT WEATHER AND/OR OBSTRUCTIONS TO VISIBILITY.

KYZ001>023-026-027-061>063-070>075-242300-
WESTERN AND SOUTH CENTRAL KENTUCKY

CITY           SKY/WX    TMP DP  RH WIND       PRES   REMARKS
PADUCAH        MOSUNNY   81  61  50 W6        30.03F
HENDERSON      CLOUDY    81  57  44 S10       30.03F
OWENSBORO      CLOUDY    81  60  48 SW7       30.06F
HOPKINSVILLE   NOT AVBL
BOWLING GREEN  PTSUNNY   82  54  37 W8        30.08R
GLASGOW        NOT AVBL
$$

KYZ024-025-028>034-038-045-046-053-242300-
NORTH CENTRAL KENTUCKY

CITY           SKY/WX    TMP DP  RH WIND       PRES   REMARKS
LOUISVILLE/SDF MOSUNNY   84  52  33 W13       30.05S
LOUISVILLE/LOU MOSUNNY   83  53  35 S8        30.06R
FORT KNOX      NOT AVBL
$$

KYZ035>037-039>044-047>052-055>060-089>105-242300-
NORTHEAST KENTUCKY

CITY           SKY/WX    TMP DP  RH WIND       PRES   REMARKS
LEXINGTON      SUNNY     79  46  31 S7        30.09S
COVINGTON      MOSUNNY   80  46  30 SW7       30.07S
FRANKFORT      SUNNY     81  45  28 W6        30.08R
$$

KYZ054-064>069-076>088-106>120-242300-
SOUTHEAST KENTUCKY

CITY           SKY/WX    TMP DP  RH WIND       PRES   REMARKS
JACKSON        SUNNY     79  52  38 CALM      30.11S
LONDON         SUNNY     80  43  26 W8        30.11R
SOMERSET       NOT AVBL
MIDDLESBORO    NOT AVBL
MONTICELLO     CLEAR     81  54  39 W10G16    30.13R
$$





USA.gov is the U.S. government's official web portal to all federal, state and local government web resources and services.